Maastricht, Netherlands

5:58 PM CEST on June 27, 2017 (GMT +0200)
Maastricht-Aachen

Weather History for EHBK - October, 2013

Change the Weather History Date:

Saturday, October 12, 2013

  Actual Average Record
Temperature  
Mean Temperature 40 °F -  
Max Temperature 46 °F 54 °F 71 °F (2001)
Min Temperature 35 °F 41 °F 32 °F (2015)
Degree Days  
Heating Degree Days 24    
Moisture  
Dew Point 41 °F    
Average Humidity 94    
Maximum Humidity 100    
Minimum Humidity 83    
Precipitation  
Precipitation 0.00 in 0.08 in - ()
Sea Level Pressure  
Sea Level Pressure 30.05 in    
Wind  
Wind Speed 5 mph ()    
Max Wind Speed 9 mph    
Max Gust Speed -    
Visibility 2.9 miles    
Events Fog , Rain    
Averages and records for this station are not official NWS values.
T = Trace of Precipitation, MM = Missing Value Source: Averaged Metar Reports

Daily Weather History Graph

Daily Weather History Graph

Search for Another Location

Airport or City:

Trip Planner

Search our weather history database for the weather conditions in past years. The results will help you decide how hot, cold, wet, or windy it might be!

Date:

Astronomy

Oct. 12, 2013 Rise Set
Actual Time 7:55 AM CEST 6:50 PM CEST
Civil Twilight 7:22 AM CEST 7:23 PM CEST
Nautical Twilight 6:43 AM CEST 8:01 PM CEST
Astronomical Twilight 6:05 AM CEST 8:40 PM CEST
Moon 3:26 PM CEST (10/12) No Moon Set
Length of Visible Light 12h 01m
Length of Day
10h 55m
First Quarter, 55% of the Moon is Illuminated
Oct 12
First Quarter
Oct 19
Full
Oct 27
Last Quarter
Nov 3
New
Nov 10
First Quarter

Hourly Weather History & Observations

Time (CEST) Temp. Windchill Dew Point Humidity Pressure Visibility Wind Dir Wind Speed Gust Speed Precip Events Conditions
12:25 AM 44.6 °F 41.4 °F 42.8 °F 93% 30.01 in - East 5.8 mph - N/A   Overcast
12:55 AM 44.6 °F 43.1 °F 42.8 °F 93% 30.01 in - East 3.5 mph - N/A   Overcast
1:25 AM 41.0 °F 38.0 °F 41.0 °F 100% 30.01 in - East 4.6 mph - N/A   Mist
1:55 AM 41.0 °F 37.1 °F 41.0 °F 100% 30.01 in - East 5.8 mph - N/A   Mist
2:00 AM 41 °F - 40 °F 97% 30.05 in 2 mi East 6.7 mph - -   Mist
2:25 AM 41.0 °F 37.1 °F 41.0 °F 100% 30.04 in - East 5.8 mph - N/A   Mist
2:55 AM 41.0 °F 36.4 °F 39.2 °F 93% 30.04 in 3.7 mi East 6.9 mph - N/A   Unknown
3:25 AM 39.2 °F 35.0 °F 39.2 °F 100% 30.04 in 3.7 mi East 5.8 mph - N/A   Unknown
3:55 AM 39.2 °F 35.0 °F 37.4 °F 93% 30.04 in 3.7 mi East 5.8 mph - N/A   Unknown
4:25 AM 37.4 °F 32.8 °F 37.4 °F 100% 30.06 in 3.7 mi East 5.8 mph - N/A   Unknown
4:55 AM 39.2 °F 34.2 °F 37.4 °F 93% 30.06 in 3.7 mi East 6.9 mph - N/A   Unknown
5:25 AM 39.2 °F 35.0 °F 37.4 °F 93% 30.06 in 4.3 mi East 5.8 mph - N/A   Unknown
5:55 AM 37.4 °F 32.8 °F 37.4 °F 100% 30.06 in 4.3 mi East 5.8 mph - N/A   Unknown
6:25 AM 37.4 °F 34.9 °F 35.6 °F 93% 30.06 in 3.7 mi East 3.5 mph - N/A   Unknown
6:55 AM 37.4 °F 32.8 °F 35.6 °F 93% 30.06 in 1.7 mi NNE 5.8 mph - N/A   Mist
7:25 AM 35.6 °F 29.9 °F 35.6 °F 100% 30.06 in 0.2 mi ENE 6.9 mph - N/A Fog Fog
7:55 AM 35.6 °F 29.9 °F 35.6 °F 100% 30.06 in 0.2 mi ENE 6.9 mph - N/A   Unknown
8:00 AM 36 °F - 36 °F 100% 30.10 in 0 mi ENE 6.7 mph - - Rain Rain Showers
8:25 AM 37.4 °F 31.4 °F 37.4 °F 100% 30.06 in 0.1 mi ENE 8.1 mph - N/A   Unknown
8:55 AM 39.2 °F 33.6 °F 39.2 °F 100% 30.09 in 0.1 mi NE 8.1 mph - N/A   Unknown
9:25 AM 39.2 °F 35.0 °F 39.2 °F 100% 30.09 in 0.1 mi ENE 5.8 mph - N/A Fog Fog
9:55 AM 39.2 °F 37.0 °F 39.2 °F 100% 30.09 in 0.1 mi ENE 3.5 mph - N/A Fog Fog
10:25 AM 41.0 °F 37.1 °F 41.0 °F 100% 30.09 in 0.7 mi ESE 5.8 mph - N/A   Overcast
10:55 AM 41.0 °F 37.1 °F 41.0 °F 100% 30.09 in 2.2 mi ENE 5.8 mph - N/A   Overcast
11:00 AM 41 °F - 41 °F 99% 30.14 in 2 mi ENE 6.7 mph - - Fog Fog
11:25 AM 41.0 °F 37.1 °F 41.0 °F 100% 30.09 in 1.5 mi NNE 5.8 mph - N/A   Overcast
11:55 AM 42.8 °F 38.0 °F 42.8 °F 100% 30.09 in 2.2 mi ENE 8.1 mph - N/A   Overcast
12:25 PM 44.6 °F 41.4 °F 42.8 °F 93% 30.09 in 3.1 mi NE 5.8 mph - N/A   Overcast
12:55 PM 42.8 °F 41.1 °F 41.0 °F 93% 30.09 in - NE 3.5 mph - N/A   Overcast
1:25 PM 44.6 °F 41.4 °F 42.8 °F 93% 30.09 in 3.1 mi NNE 5.8 mph - N/A   Overcast
1:55 PM 46.4 °F 43.5 °F 42.8 °F 87% 30.06 in 4.3 mi ENE 5.8 mph - N/A   Mostly Cloudy
2:00 PM 46 °F - 43 °F 84% 30.10 in 4 mi NNE 8.9 mph - -   Mist
2:25 PM 46.4 °F 43.5 °F 42.8 °F 87% 30.06 in 4.3 mi NNE 5.8 mph - N/A   Overcast
2:55 PM 46.4 °F 43.5 °F 42.8 °F 87% 30.04 in 5.6 mi ENE 5.8 mph - N/A   Mostly Cloudy
3:25 PM 46.4 °F 44.3 °F 42.8 °F 87% 30.04 in 5.6 mi East 4.6 mph - N/A   Mostly Cloudy
3:55 PM 46.4 °F 43.5 °F 42.8 °F 87% 30.04 in 5.0 mi East 5.8 mph - N/A   Mostly Cloudy
4:25 PM 46.4 °F 45.2 °F 42.8 °F 87% 30.04 in 5.0 mi SE 3.5 mph - N/A   Unknown
4:55 PM 46.4 °F - 42.8 °F 87% 30.04 in 5.0 mi Variable 2.3 mph - N/A   Unknown
5:00 PM 46 °F - 42 °F 83% 30.05 in 5 mi South 2.2 mph - -   Mist
5:25 PM 46.4 °F - 42.8 °F 87% 30.01 in 4.3 mi South 2.3 mph - N/A   Unknown
5:55 PM 44.6 °F 41.4 °F 42.8 °F 93% 29.98 in 4.3 mi SW 5.8 mph - N/A   Unknown
6:25 PM 44.6 °F 43.1 °F 42.8 °F 93% 30.01 in 3.7 mi SW 3.5 mph - N/A   Unknown
6:55 PM 44.6 °F - 42.8 °F 93% 30.01 in 4.3 mi Variable 1.2 mph - N/A   Scattered Clouds
7:25 PM 44.6 °F - 42.8 °F 93% 30.01 in 4.3 mi Variable 1.2 mph - N/A   Scattered Clouds
7:55 PM 44.6 °F 43.1 °F 42.8 °F 93% 30.01 in - SW 3.5 mph - N/A   Mist
8:00 PM 44 °F - 43 °F 97% 30.04 in 3 mi SW 4.5 mph - -   Mist
8:25 PM 44.6 °F 41.4 °F 42.8 °F 93% 30.01 in 2.2 mi South 5.8 mph - N/A   Mist
8:55 PM 44.6 °F 41.4 °F 42.8 °F 93% 30.01 in - SW 5.8 mph - N/A   Mist
9:25 PM 44.6 °F 42.2 °F 42.8 °F 93% 30.01 in - SSW 4.6 mph - N/A   Mostly Cloudy
9:55 PM 44.6 °F 40.7 °F 42.8 °F 93% 30.01 in 2.5 mi SSW 6.9 mph - N/A   Mostly Cloudy
10:25 PM 44.6 °F 41.4 °F 42.8 °F 93% 30.01 in - SSW 5.8 mph - N/A   Mostly Cloudy
10:55 PM 44.6 °F 42.2 °F 42.8 °F 93% 30.01 in 1.7 mi SSW 4.6 mph - N/A   Light Drizzle
11:00 PM 44 °F - 43 °F 97% 30.02 in 1 mi SSW 4.5 mph - - Rain Light Drizzle
11:25 PM 44.6 °F 41.4 °F 42.8 °F 93% 29.98 in 1.6 mi SSW 5.8 mph - N/A   Light Drizzle
11:55 PM 44.6 °F 40.2 °F 42.8 °F 93% 29.98 in 1.7 mi SSW 8.1 mph - N/A   Light Drizzle